{"data":{"norad_id":67717,"intl_designator":"2026-025AA","name":"STARLINK-36385","alt_names":[],"object_type":"PAYLOAD","status":"ACTIVE","operator":null,"country":"US","launch_date":"2026-02-07","launch_site_code":"AFWTR","launch_vehicle":null,"mission":null,"orbit_class":"UNKNOWN","rcs_meters":null,"size_class":null,"mass_kg":null,"dimensions":null,"purposes":["comms"],"wikipedia_slug":null,"has_3d_model":false,"image_url":null,"decayed_at":null,"tle_current":{"epoch":"2026-05-25T00:44:34.319328Z","epoch_age_seconds":72111,"freshness":"FRESH","line1":"1 67717U 26025AA  26145.03095277  .00010396  00000+0  32384-3 0  9995","line2":"2 67717  97.2849 256.6743 0000856  86.1167 274.0173 15.33450807 17716","mean_motion":15.33450807,"eccentricity":8.56e-5,"inclination_deg":97.2849,"raan_deg":256.6743,"arg_perigee_deg":86.1167,"mean_anomaly_deg":274.0173,"bstar":0.00032384,"rev_number":1771,"period_min":93.905849044951,"perigee_km":464.94007944224,"apogee_km":466.11171453021,"semimajor_km":6843.6628969862,"source":"CELESTRAK","updated_at":"2026-05-25T13:38:21.684535Z"}}}